Change the Weather History Date:

Friday, November 18, 2011

  Actual Average Record
Temperature  
Mean Temperature 35 °F 35 °F  
Max Temperature 39 °F 43 °F 65 °F (1927)
Min Temperature 30 °F 27 °F -2 °F (1904)
Degree Days  
Heating Degree Days 30 30  
Month to date heating degree days 424 477  
Since 1 July heating degree days 1091 1264  
Cooling Degree Days 0 0  
Month to date cooling degree days 0  
Year to date cooling degree days 433  
Moisture  
Dew Point 21 °F    
Average Humidity 68    
Maximum Humidity 92    
Minimum Humidity 44    
Precipitation  
Precipitation 0.00 in 0.12 in 0.90 in (1935)
Month to date precipitation 0.22 2.07  
Year to date precipitation 46.03 35.09  
Sea Level Pressure  
Sea Level Pressure 30.15 in    
Wind  
Wind Speed - (North)    
Max Wind Speed -    
Max Gust Speed -    
T = Trace of Precipitation, MM = Missing Value Source: NWS Daily Summary

Daily Weather History Graph

Daily Weather History Graph

Search for Another Location

Airport or City:

Trip Planner

Search our weather history database for the weather conditions in past years. The results will help you decide how hot, cold, wet, or windy it might be!

Date:

Astronomy

Nov. 18, 2011 Rise Set
Actual Time 6:47 AM EST 4:18 PM EST
Civil Twilight 6:16 AM EST 4:49 PM EST
Nautical Twilight 5:40 AM EST 5:25 PM EST
Astronomical Twilight 5:06 AM EST 5:59 PM EST
Moon 11:51 PM EST (11/18) 12:18 PM EST (11/18)
Length of Visible Light 10h 33m
Length of Day
9h 30m
Waning Gibbous, 49% of the Moon is Illuminated
Nov 18
Waning Gibbous
Nov 25
New
Dec 2
First Quarter
Dec 10
Full
Dec 17
Last Quarter

Hourly Weather History & Observations

Time (EST) Temp. Dew Point Humidity Pressure Visibility Wind Dir Wind Speed Gust Speed Precip Events Conditions
12:54 AM 32.0 °F 26.1 °F 79% 29.86 in - North - - N/A   Unknown
1:54 AM 30.0 °F 27.0 °F 88% 29.90 in - North - - N/A   Unknown
2:54 AM 30.0 °F 28.0 °F 92% 29.92 in - North - - N/A   Unknown
3:54 AM 30.9 °F 25.0 °F 79% 29.96 in - North - - N/A   Unknown
4:54 AM 30.9 °F 23.0 °F 72% 29.98 in - North - - N/A   Unknown
5:54 AM 30.9 °F 23.0 °F 72% 30.02 in - North - - N/A   Unknown
6:54 AM 30.9 °F 21.9 °F 69% 30.06 in - North - - N/A   Unknown
7:54 AM 30.9 °F 21.0 °F 67% 30.12 in - North - - N/A   Unknown
8:54 AM 33.1 °F 19.9 °F 59% 30.15 in - North - - N/A   Unknown
9:54 AM 35.1 °F 19.9 °F 54% 30.17 in - North - - N/A   Unknown
10:54 AM 35.1 °F 19.0 °F 52% 30.17 in - North - - N/A   Unknown
11:54 AM 34.0 °F 21.9 °F 61% 30.20 in - North - - N/A   Unknown
12:54 PM 36.0 °F 21.9 °F 57% 30.21 in - North - - N/A   Unknown
1:54 PM 37.9 °F 17.1 °F 43% 30.22 in - North - - N/A   Unknown
2:54 PM 37.9 °F 18.0 °F 45% 30.22 in - North - - N/A   Unknown
3:54 PM 37.0 °F 17.1 °F 44% 30.24 in - North - - N/A   Unknown
4:54 PM 35.1 °F 18.0 °F 50% 30.25 in - North - - N/A   Unknown
5:54 PM 33.1 °F 21.9 °F 64% 30.27 in - North - - N/A   Unknown
6:54 PM 34.0 °F 19.9 °F 56% 30.27 in - North - - N/A   Unknown
7:54 PM 32.0 °F 19.9 °F 61% 30.28 in - North - - N/A   Unknown
8:54 PM 30.9 °F 21.0 °F 67% 30.28 in - North - - N/A   Unknown
9:54 PM 32.0 °F 21.9 °F 66% 30.29 in - North - - N/A   Unknown
10:54 PM 33.1 °F 21.0 °F 61% 30.27 in - North - - N/A   Unknown
11:54 PM 33.1 °F 19.9 °F 59% 30.28 in - North - - N/A   Unknown